Terminal Aerodrome Forecast
Issued by NWS

Home | Current Version | Previous Version | Text Only | Print | Product List | Glossary Off
Versions: 1 2 3 4 5 6 7 8 9 10 11 12

000
FTUS45 KGGW 172300
TAFSDY
TAF
KSDY 172320Z 1800/1824 12009KT P6SM SCT130
     FM181500 18009KT P6SM SCT130
     FM182100 23013KT P6SM SCT130
      AMD LTD TO CLD VIS AND WIND=

USA.gov is the U.S. government's official web portal to all federal, state and local government web resources and services.